Rome, GA

9:32 AM EDT on May 29, 2017 (GMT -0400)
Russell

Weather History for KRMG - June, 2014

Change the Weather History Date:

Sunday, June 1, 2014

  Actual Average Record
Temperature  
Mean Temperature 75 °F 73 °F  
Max Temperature 81 °F 85 °F 98 °F (2011)
Min Temperature 68 °F 61 °F 57 °F (2003)
Cooling Degree Days 10 8  
Month to date cooling degree days 10 8  
Year to date cooling degree days 211 176  
Since 1 June cooling degree days 10 8  
Growing Degree Days 26 (Base 50)    
Moisture  
Dew Point 66 °F    
Average Humidity 79    
Maximum Humidity 100    
Minimum Humidity 58    
Precipitation  
Precipitation 0.00 in 0.15 in 1.57 in (2001)
Month to date precipitation 0.00 0.15  
Year to date precipitation 24.49 23.02  
Sea Level Pressure  
Sea Level Pressure 30.15 in    
Wind  
Wind Speed 6 mph (East)    
Max Wind Speed 16 mph    
Max Gust Speed 22 mph    
Visibility 10 miles    
Events      
T = Trace of Precipitation, MM = Missing Value Source: NWS Daily Summary

Daily Weather History Graph

Daily Weather History Graph

Search for Another Location

Airport or City:

Trip Planner

Search our weather history database for the weather conditions in past years. The results will help you decide how hot, cold, wet, or windy it might be!

Date:

Astronomy

Jun. 01, 2014 Rise Set
Actual Time 6:29 AM EDT 8:47 PM EDT
Civil Twilight 6:00 AM EDT 9:16 PM EDT
Nautical Twilight 5:25 AM EDT 9:52 PM EDT
Astronomical Twilight 4:46 AM EDT 10:30 PM EDT
Moon 9:56 AM EDT (6/1) 11:48 PM EDT (6/1)
Length of Visible Light 15h 15m
Length of Day
14h 18m
Waxing Crescent, 14% of the Moon is Illuminated
Jun 1
Waxing Crescent
Jun 5
First Quarter
Jun 13
Full
Jun 19
Last Quarter
Jun 27
New

Hourly Weather History & Observations

Time (EDT) Temp. Heat Index Dew Point Humidity Pressure Visibility Wind Dir Wind Speed Gust Speed Precip Events Conditions
12:53 AM 71.1 °F - 68.0 °F 90% 30.10 in 10.0 mi NE 4.6 mph - N/A   Mostly Cloudy
1:53 AM 70.0 °F - 68.0 °F 93% 30.12 in 10.0 mi Calm Calm - N/A   Overcast
2:44 AM 71.1 °F - 68.0 °F 90% 30.14 in 10.0 mi NE 3.5 mph - N/A   Mostly Cloudy
2:53 AM 71.1 °F - 69.1 °F 93% 30.12 in 10.0 mi NE 3.5 mph - N/A   Mostly Cloudy
3:53 AM 70.0 °F - 68.0 °F 93% 30.11 in 10.0 mi NE 3.5 mph - N/A   Mostly Cloudy
4:53 AM 70.0 °F - 69.1 °F 97% 30.12 in 9.0 mi Calm Calm - N/A   Overcast
5:53 AM 70.0 °F - 69.1 °F 97% 30.12 in 9.0 mi ENE 3.5 mph - N/A   Overcast
6:53 AM 71.1 °F - 69.1 °F 93% 30.14 in 8.0 mi NE 4.6 mph - N/A   Overcast
7:53 AM 72.0 °F - 69.1 °F 91% 30.15 in 10.0 mi Variable 3.5 mph - N/A   Overcast
8:18 AM 72.0 °F - 68.0 °F 87% 30.18 in 10.0 mi SE 5.8 mph - N/A   Overcast
8:53 AM 73.9 °F - 69.1 °F 85% 30.17 in 10.0 mi ESE 10.4 mph - N/A   Mostly Cloudy
9:53 AM 75.2 °F - 66.2 °F 73% 30.20 in 10.0 mi ESE 13.8 mph 18.4 mph N/A   Mostly Cloudy
10:53 AM 73.9 °F - 66.0 °F 76% 30.19 in 10.0 mi East 10.4 mph 20.7 mph N/A   Overcast
11:34 AM 75.9 °F - 66.0 °F 71% 30.22 in 10.0 mi ESE 11.5 mph - N/A   Overcast
11:53 AM 75.0 °F - 66.0 °F 73% 30.20 in 10.0 mi SE 6.9 mph - N/A   Overcast
12:53 PM 75.9 °F - 66.0 °F 71% 30.20 in 10.0 mi SE 6.9 mph - N/A   Overcast
1:53 PM 79.0 °F - 64.9 °F 62% 30.18 in 10.0 mi SE 8.1 mph - N/A   Overcast
2:53 PM 79.0 °F - 64.9 °F 62% 30.16 in 10.0 mi SE 8.1 mph - N/A   Overcast
3:53 PM 79.0 °F - 64.9 °F 62% 30.14 in 10.0 mi East 11.5 mph - N/A   Overcast
4:53 PM 80.1 °F 81.7 °F 64.0 °F 58% 30.12 in 10.0 mi East 10.4 mph - N/A   Overcast
5:53 PM 79.0 °F - 63.0 °F 58% 30.11 in 10.0 mi ESE 13.8 mph - N/A   Partly Cloudy
6:53 PM 79.0 °F - 64.0 °F 60% 30.11 in 10.0 mi ESE 8.1 mph - N/A   Mostly Cloudy
7:53 PM 77.0 °F - 64.0 °F 64% 30.12 in 10.0 mi ESE 8.1 mph - N/A   Clear
8:53 PM 73.9 °F - 63.0 °F 68% 30.14 in 10.0 mi ESE 8.1 mph - N/A   Clear
9:53 PM 72.0 °F - 64.0 °F 76% 30.15 in 10.0 mi East 3.5 mph - N/A   Scattered Clouds
10:53 PM 72.0 °F - 64.0 °F 76% 30.17 in 10.0 mi ESE 5.8 mph - N/A   Overcast
11:53 PM 71.1 °F - 63.0 °F 75% 30.17 in 10.0 mi Calm Calm - N/A   Overcast